Total_Precipitation_Accumulation
0.86 0.86 0.85 0.82 0.81 0.81 0.81 0.78 0.82 0.89 0.89 0.92 1.08 1.13 1.19 1.25 1.43 1.69 1.87 1.87 1.79 1.79 1.78 1.87 2.04 2.12 2.34 2.31 2.23 2.12 1.99 1.82 1.68 1.52 1.32 1.15 1.20 1.25 1.35 1.47 1.48 1.38 1.19
0.97 0.97 0.90 0.81 0.76 0.75 0.73 0.66 0.67 0.65 0.64 0.76 0.90 0.94 0.97 1.00 1.18 1.47 1.67 1.71 1.67 1.58 1.57 1.69 1.91 2.08 2.29 2.39 2.34 2.21 2.11 1.98 1.85 1.78 1.60 1.39 1.28 1.31 1.40 1.52 1.52 1.46 1.36
1.01 0.91 0.83 0.76 0.66 0.61 0.54 0.50 0.57 0.59 0.65 0.77 0.86 0.91 0.93 0.98 1.01 1.11 1.27 1.39 1.37 1.31 1.34 1.41 1.47 1.67 1.96 2.14 2.16 2.18 2.21 2.19 2.14 1.98 1.77 1.64 1.50 1.39 1.46 1.51 1.51 1.57 1.44
1.14 1.03 0.92 0.80 0.70 0.64 0.55 0.51 0.50 0.53 0.60 0.68 0.76 0.82 0.89 0.95 0.95 0.96 0.98 1.05 1.06 1.11 1.17 1.22 1.26 1.31 1.54 1.72 1.81 2.00 2.23 2.24 2.26 2.18 1.96 1.78 1.65 1.52 1.58 1.67 1.75 1.74 1.58
1.16 1.14 1.00 0.81 0.68 0.62 0.59 0.51 0.49 0.50 0.51 0.58 0.65 0.69 0.74 0.83 0.92 0.95 0.82 0.77 0.84 0.95 0.98 0.96 0.98 1.05 1.19 1.29 1.36 1.72 2.06 2.24 2.23 2.18 2.05 1.95 1.69 1.56 1.43 1.43 1.65 1.90 1.87
1.05 1.02 0.81 0.64 0.51 0.48 0.49 0.48 0.44 0.43 0.48 0.53 0.52 0.56 0.68 0.72 0.86 0.84 0.67 0.65 0.68 0.78 0.87 0.87 0.77 0.76 0.81 0.87 0.96 1.14 1.41 1.66 1.94 2.12 2.04 1.85 1.64 1.54 1.49 1.50 1.56 1.69 1.84
0.71 0.68 0.58 0.47 0.45 0.48 0.50 0.46 0.44 0.45 0.45 0.47 0.46 0.48 0.53 0.67 0.72 0.58 0.55 0.57 0.64 0.69 0.75 0.82 0.75 0.65 0.72 0.76 0.86 0.93 0.95 1.02 1.31 1.66 1.78 1.73 1.80 1.68 1.64 1.57 1.54 1.61 1.66
0.46 0.47 0.42 0.39 0.41 0.43 0.44 0.44 0.51 0.56 0.53 0.52 0.53 0.52 0.52 0.58 0.57 0.47 0.50 0.52 0.57 0.62 0.70 0.79 0.85 0.78 0.77 0.88 0.88 0.91 0.87 0.83 1.03 1.04 1.20 1.50 1.68 1.77 1.73 1.81 1.98 1.94 1.80
0.17 0.19 0.19 0.19 0.21 0.22 0.24 0.30 0.41 0.48 0.51 0.54 0.58 0.58 0.53 0.50 0.52 0.44 0.46 0.52 0.56 0.61 0.63 0.68 0.76 0.74 0.88 0.97 0.97 1.10 1.08 0.96 1.09 1.14 1.18 1.21 1.33 1.49 1.61 1.69 1.78 1.84 1.82
0.06 0.07 0.09 0.10 0.10 0.10 0.13 0.16 0.23 0.24 0.30 0.40 0.43 0.46 0.49 0.48 0.60 0.48 0.49 0.52 0.61 0.70 0.71 0.69 0.83 0.83 0.89 0.89 0.87 1.11 1.13 1.01 0.93 1.00 1.01 0.97 0.92 1.02 1.24 1.41 1.61 1.71 1.69
0.07 0.09 0.09 0.09 0.08 0.08 0.09 0.11 0.14 0.15 0.20 0.24 0.28 0.34 0.42 0.50 0.61 0.59 0.63 0.63 0.69 0.82 0.79 0.72 0.66 0.77 0.66 0.73 0.77 0.82 1.03 1.02 0.92 0.99 1.02 0.96 0.89 0.90 0.97 1.10 1.35 1.56 1.62
0.08 0.08 0.09 0.09 0.10 0.09 0.09 0.10 0.11 0.13 0.14 0.16 0.18 0.23 0.31 0.39 0.47 0.53 0.55 0.59 0.67 0.76 0.81 0.69 0.66 0.73 0.58 0.56 0.58 0.70 0.86 0.97 0.95 0.99 0.99 0.97 0.89 0.81 0.84 0.94 1.05 1.15 1.22
0.09 0.09 0.09 0.10 0.10 0.09 0.10 0.12 0.11 0.12 0.14 0.16 0.18 0.25 0.32 0.38 0.43 0.41 0.38 0.42 0.50 0.59 0.62 0.66 0.65 0.61 0.55 0.51 0.51 0.58 0.67 0.78 0.95 0.98 0.91 0.87 0.81 0.76 0.78 0.81 0.90 0.98 1.05
0.09 0.10 0.11 0.11 0.11 0.11 0.11 0.12 0.12 0.13 0.14 0.18 0.23 0.28 0.34 0.37 0.40 0.39 0.41 0.44 0.44 0.47 0.47 0.47 0.50 0.53 0.56 0.55 0.52 0.55 0.62 0.73 0.81 0.82 0.77 0.74 0.77 0.79 0.84 0.86 0.90 0.94 1.01
0.09 0.10 0.10 0.10 0.10 0.10 0.11 0.10 0.10 0.10 0.13 0.20 0.27 0.32 0.32 0.32 0.28 0.29 0.41 0.50 0.57 0.62 0.68 0.61 0.62 0.63 0.60 0.55 0.52 0.52 0.58 0.64 0.65 0.63 0.63 0.60 0.60 0.66 0.72 0.77 0.85 0.86 0.88
0.12 0.10 0.10 0.09 0.09 0.09 0.10 0.10 0.10 0.10 0.14 0.17 0.17 0.19 0.20 0.20 0.21 0.24 0.30 0.41 0.50 0.63 0.78 0.81 0.84 0.86 0.80 0.70 0.61 0.53 0.49 0.52 0.55 0.59 0.61 0.60 0.57 0.58 0.65 0.68 0.75 0.80 0.81
0.14 0.14 0.11 0.09 0.09 0.10 0.11 0.12 0.14 0.12 0.09 0.09 0.09 0.11 0.18 0.25 0.29 0.33 0.36 0.40 0.44 0.59 0.78 0.84 0.85 0.84 0.77 0.71 0.67 0.58 0.50 0.47 0.50 0.52 0.53 0.56 0.58 0.60 0.64 0.66 0.65 0.70 0.76
0.10 0.11 0.11 0.13 0.14 0.14 0.15 0.18 0.22 0.25 0.22 0.15 0.10 0.08 0.11 0.19 0.24 0.27 0.36 0.48 0.49 0.57 0.68 0.71 0.70 0.59 0.52 0.50 0.47 0.44 0.41 0.39 0.42 0.43 0.43 0.46 0.53 0.56 0.60 0.65 0.67 0.67 0.71
0.06 0.08 0.11 0.17 0.21 0.19 0.20 0.25 0.27 0.22 0.19 0.16 0.14 0.11 0.11 0.14 0.17 0.19 0.29 0.47 0.48 0.42 0.38 0.37 0.36 0.34 0.32 0.33 0.33 0.33 0.33 0.33 0.33 0.35 0.36 0.39 0.45 0.50 0.56 0.61 0.67 0.71 0.71
0.06 0.07 0.10 0.15 0.19 0.18 0.18 0.19 0.20 0.20 0.18 0.20 0.20 0.19 0.20 0.21 0.22 0.23 0.26 0.30 0.28 0.24 0.23 0.24 0.25 0.26 0.27 0.30 0.31 0.32 0.32 0.32 0.33 0.35 0.37 0.42 0.46 0.50 0.56 0.62 0.68 0.73 0.73
0.07 0.09 0.11 0.13 0.15 0.14 0.15 0.16 0.17 0.20 0.21 0.23 0.23 0.23 0.26 0.29 0.28 0.27 0.29 0.29 0.27 0.26 0.26 0.28 0.27 0.27 0.30 0.33 0.36 0.38 0.38 0.38 0.38 0.41 0.44 0.49 0.53 0.55 0.58 0.66 0.74 0.76 0.77
0.10 0.12 0.13 0.15 0.16 0.15 0.16 0.18 0.21 0.22 0.21 0.22 0.23 0.24 0.27 0.29 0.29 0.28 0.27 0.27 0.27 0.27 0.31 0.35 0.35 0.33 0.33 0.37 0.42 0.44 0.46 0.47 0.46 0.46 0.47 0.50 0.54 0.54 0.57 0.66 0.75 0.80 0.82
0.13 0.14 0.16 0.18 0.18 0.18 0.19 0.21 0.23 0.23 0.22 0.23 0.25 0.25 0.26 0.28 0.30 0.31 0.31 0.30 0.30 0.32 0.33 0.36 0.39 0.38 0.37 0.39 0.45 0.51 0.54 0.54 0.54 0.55 0.59 0.61 0.60 0.59 0.60 0.64 0.69 0.76 0.81
0.14 0.18 0.21 0.23 0.23 0.22 0.23 0.23 0.24 0.23 0.24 0.26 0.26 0.27 0.28 0.30 0.30 0.29 0.32 0.33 0.35 0.37 0.37 0.38 0.39 0.38 0.38 0.42 0.46 0.51 0.56 0.56 0.54 0.55 0.59 0.64 0.66 0.67 0.68 0.71 0.78 0.81 0.87
0.19 0.20 0.22 0.24 0.24 0.23 0.23 0.24 0.25 0.25 0.26 0.28 0.28 0.27 0.29 0.32 0.33 0.33 0.35 0.36 0.38 0.41 0.40 0.41 0.42 0.41 0.41 0.43 0.47 0.52 0.62 0.65 0.61 0.58 0.58 0.62 0.66 0.70 0.76 0.84 0.92 0.96 1.00
0.18 0.20 0.22 0.26 0.27 0.27 0.27 0.28 0.29 0.30 0.32 0.33 0.35 0.36 0.37 0.39 0.39 0.39 0.41 0.42 0.42 0.41 0.40 0.42 0.44 0.44 0.46 0.49 0.52 0.60 0.66 0.62 0.60 0.62 0.61 0.65 0.71 0.73 0.75 0.81 0.84 0.89 0.94